QPF
0.00 0.00 0.00 0.00 0.00 0.00 0.00 0.00 0.00 0.00 0.00 0.00 0.01 0.02 0.02 0.01 0.00 0.00 0.00 0.00 0.00 0.00 0.00 0.00 0.02 0.03 0.05 0.07 0.07 0.02 0.00 0.00 0.00 0.00 0.00 0.00 0.00 0.00 0.00 0.00 0.00 0.00 0.00
0.00 0.00 0.00 0.00 0.00 0.00 0.00 0.00 0.00 0.00 0.00 0.00 0.01 0.02 0.02 0.02 0.01 0.00 0.00 0.00 0.00 0.00 0.00 0.00 0.00 0.02 0.04 0.05 0.04 0.01 0.00 0.00 0.00 0.00 0.00 0.00 0.00 0.00 0.00 0.00 0.00 0.00 0.00
0.00 0.00 0.00 0.00 0.00 0.00 0.00 0.00 0.00 0.00 0.00 0.00 0.01 0.02 0.02 0.01 0.00 0.00 0.00 0.00 0.00 0.00 0.00 0.00 0.00 0.00 0.00 0.01 0.00 0.00 0.00 0.00 0.00 0.00 0.00 0.00 0.00 0.00 0.00 0.00 0.00 0.00 0.00
0.00 0.00 0.00 0.00 0.00 0.00 0.00 0.00 0.00 0.00 0.00 0.00 0.01 0.01 0.01 0.01 0.00 0.00 0.00 0.00 0.00 0.00 0.00 0.00 0.00 0.00 0.00 0.00 0.00 0.00 0.00 0.00 0.00 0.00 0.00 0.00 0.00 0.00 0.00 0.00 0.00 0.00 0.00
0.00 0.00 0.00 0.00 0.00 0.01 0.00 0.00 0.00 0.00 0.00 0.00 0.00 0.01 0.01 0.00 0.00 0.00 0.00 0.00 0.00 0.00 0.00 0.00 0.00 0.00 0.00 0.00 0.00 0.00 0.00 0.00 0.00 0.00 0.00 0.00 0.00 0.00 0.00 0.00 0.00 0.00 0.00
0.00 0.00 0.00 0.00 0.01 0.01 0.00 0.00 0.00 0.00 0.00 0.00 0.00 0.00 0.00 0.00 0.00 0.00 0.00 0.00 0.00 0.00 0.00 0.00 0.00 0.00 0.00 0.00 0.00 0.00 0.00 0.00 0.00 0.00 0.00 0.00 0.00 0.00 0.00 0.00 0.00 0.00 0.00
0.00 0.00 0.00 0.00 0.01 0.01 0.00 0.00 0.00 0.00 0.00 0.00 0.00 0.00 0.00 0.00 0.00 0.01 0.01 0.00 0.00 0.00 0.00 0.00 0.00 0.00 0.00 0.00 0.00 0.00 0.00 0.00 0.00 0.00 0.00 0.00 0.00 0.00 0.00 0.00 0.01 0.00 0.00
0.00 0.00 0.00 0.00 0.01 0.01 0.01 0.00 0.00 0.00 0.00 0.00 0.00 0.00 0.00 0.00 0.00 0.00 0.00 0.00 0.00 0.00 0.00 0.00 0.00 0.00 0.00 0.00 0.00 0.00 0.00 0.00 0.00 0.00 0.00 0.00 0.00 0.00 0.00 0.01 0.01 0.01 0.01
0.00 0.00 0.00 0.00 0.01 0.01 0.01 0.00 0.00 0.00 0.00 0.00 0.00 0.00 0.00 0.00 0.00 0.00 0.00 0.00 0.00 0.00 0.00 0.00 0.00 0.00 0.00 0.00 0.00 0.00 0.00 0.00 0.00 0.00 0.00 0.00 0.00 0.00 0.00 0.01 0.00 0.00 0.01
0.00 0.00 0.00 0.00 0.01 0.01 0.01 0.00 0.00 0.00 0.00 0.00 0.00 0.00 0.00 0.00 0.00 0.00 0.00 0.00 0.00 0.00 0.00 0.00 0.00 0.00 0.00 0.00 0.00 0.00 0.00 0.00 0.00 0.00 0.00 0.00 0.00 0.00 0.00 0.00 0.00 0.00 0.00
0.00 0.00 0.00 0.00 0.00 0.01 0.01 0.00 0.00 0.00 0.00 0.00 0.00 0.00 0.00 0.00 0.00 0.00 0.00 0.00 0.00 0.00 0.00 0.00 0.00 0.00 0.00 0.00 0.00 0.00 0.00 0.00 0.00 0.00 0.00 0.00 0.00 0.00 0.00 0.00 0.00 0.00 0.00
0.00 0.00 0.00 0.00 0.00 0.00 0.01 0.00 0.00 0.00 0.00 0.00 0.00 0.00 0.00 0.00 0.00 0.00 0.00 0.00 0.00 0.00 0.00 0.00 0.00 0.00 0.00 0.00 0.00 0.00 0.00 0.00 0.00 0.00 0.00 0.00 0.00 0.00 0.00 0.00 0.00 0.00 0.00
0.00 0.00 0.00 0.00 0.00 0.00 0.00 0.00 0.00 0.00 0.00 0.00 0.00 0.00 0.00 0.00 0.00 0.00 0.00 0.00 0.00 0.00 0.00 0.00 0.00 0.00 0.00 0.00 0.00 0.00 0.00 0.00 0.00 0.00 0.00 0.00 0.00 0.00 0.00 0.00 0.00 0.00 0.00
0.00 0.00 0.00 0.00 0.00 0.00 0.00 0.00 0.00 0.00 0.00 0.00 0.00 0.00 0.00 0.00 0.00 0.00 0.00 0.00 0.00 0.00 0.00 0.00 0.00 0.00 0.00 0.00 0.00 0.00 0.00 0.00 0.00 0.00 0.00 0.00 0.00 0.00 0.00 0.00 0.00 0.00 0.00
0.00 0.00 0.00 0.00 0.00 0.00 0.00 0.00 0.00 0.00 0.00 0.00 0.00 0.00 0.00 0.00 0.00 0.00 0.00 0.00 0.00 0.00 0.00 0.00 0.00 0.00 0.00 0.00 0.00 0.00 0.00 0.00 0.00 0.00 0.00 0.00 0.00 0.00 0.00 0.00 0.00 0.00 0.00
0.00 0.00 0.00 0.00 0.00 0.00 0.00 0.00 0.00 0.00 0.00 0.00 0.00 0.00 0.00 0.00 0.00 0.00 0.00 0.00 0.00 0.00 0.00 0.00 0.00 0.00 0.00 0.00 0.00 0.00 0.00 0.00 0.00 0.00 0.00 0.00 0.00 0.00 0.00 0.00 0.00 0.00 0.00
0.00 0.00 0.00 0.00 0.00 0.00 0.00 0.00 0.00 0.00 0.00 0.00 0.00 0.00 0.00 0.00 0.00 0.00 0.00 0.00 0.00 0.00 0.00 0.00 0.00 0.00 0.00 0.00 0.00 0.00 0.00 0.00 0.00 0.00 0.00 0.00 0.00 0.00 0.00 0.00 0.00 0.00 0.00
0.00 0.00 0.00 0.00 0.00 0.00 0.00 0.00 0.00 0.00 0.00 0.00 0.00 0.00 0.00 0.00 0.00 0.00 0.00 0.00 0.00 0.00 0.00 0.00 0.00 0.00 0.00 0.00 0.00 0.00 0.00 0.00 0.00 0.00 0.00 0.00 0.00 0.00 0.00 0.00 0.00 0.00 0.00
0.00 0.00 0.00 0.00 0.00 0.00 0.01 0.00 0.00 0.01 0.01 0.01 0.00 0.00 0.00 0.00 0.00 0.00 0.00 0.00 0.00 0.00 0.00 0.00 0.00 0.00 0.00 0.00 0.00 0.00 0.00 0.00 0.00 0.00 0.00 0.00 0.00 0.00 0.00 0.00 0.00 0.00 0.00
0.00 0.00 0.00 0.00 0.00 0.00 0.01 0.01 0.01 0.01 0.01 0.01 0.01 0.01 0.00 0.00 0.00 0.00 0.00 0.00 0.00 0.00 0.00 0.00 0.00 0.00 0.00 0.00 0.00 0.00 0.00 0.00 0.00 0.00 0.00 0.00 0.00 0.00 0.00 0.00 0.00 0.00 0.00
0.00 0.00 0.00 0.00 0.00 0.00 0.00 0.00 0.01 0.02 0.03 0.03 0.02 0.02 0.01 0.00 0.00 0.00 0.00 0.00 0.00 0.00 0.00 0.00 0.00 0.00 0.00 0.00 0.00 0.00 0.00 0.00 0.00 0.00 0.00 0.00 0.00 0.00 0.00 0.00 0.00 0.00 0.00
0.00 0.00 0.00 0.00 0.00 0.00 0.00 0.00 0.00 0.02 0.03 0.03 0.03 0.02 0.02 0.01 0.00 0.00 0.00 0.00 0.00 0.00 0.00 0.00 0.00 0.00 0.00 0.00 0.00 0.00 0.00 0.00 0.00 0.00 0.00 0.00 0.00 0.00 0.00 0.00 0.00 0.00 0.00
0.00 0.00 0.00 0.00 0.00 0.00 0.00 0.00 0.00 0.01 0.02 0.02 0.02 0.02 0.02 0.02 0.01 0.00 0.00 0.00 0.00 0.00 0.00 0.00 0.00 0.00 0.00 0.00 0.00 0.00 0.00 0.00 0.00 0.00 0.00 0.00 0.00 0.00 0.00 0.00 0.00 0.00 0.00
0.00 0.00 0.00 0.00 0.00 0.00 0.00 0.00 0.00 0.01 0.02 0.03 0.04 0.05 0.04 0.03 0.01 0.00 0.00 0.00 0.00 0.00 0.00 0.00 0.00 0.00 0.00 0.00 0.00 0.00 0.00 0.00 0.00 0.00 0.00 0.00 0.00 0.00 0.00 0.00 0.00 0.00 0.00
0.00 0.00 0.00 0.00 0.00 0.00 0.00 0.00 0.00 0.01 0.03 0.04 0.05 0.05 0.03 0.02 0.01 0.01 0.00 0.00 0.00 0.00 0.00 0.00 0.00 0.00 0.00 0.00 0.00 0.00 0.00 0.00 0.00 0.00 0.00 0.00 0.00 0.00 0.00 0.00 0.00 0.00 0.00
0.00 0.00 0.00 0.00 0.00 0.00 0.00 0.00 0.00 0.00 0.01 0.03 0.04 0.03 0.02 0.01 0.01 0.00 0.00 0.00 0.00 0.00 0.00 0.00 0.00 0.00 0.00 0.00 0.00 0.00 0.00 0.00 0.00 0.00 0.00 0.00 0.00 0.00 0.00 0.00 0.00 0.00 0.00
MSLP
1010.12 1010.28 1010.52 1010.86 1011.27 1011.71 1012.14 1012.52 1012.82 1013.04 1013.20 1013.35 1013.52 1013.75 1014.03 1014.36 1014.71 1015.03 1015.28 1015.44 1015.51 1015.51 1015.47 1015.44 1015.45 1015.52 1015.65 1015.83 1016.03 1016.22 1016.38 1016.49 1016.57 1016.61 1016.65 1016.69 1016.72 1016.76 1016.79 1016.80 1016.78 1016.73 1016.67
1009.94 1010.15 1010.47 1010.89 1011.37 1011.87 1012.33 1012.72 1013.01 1013.22 1013.37 1013.51 1013.69 1013.94 1014.26 1014.62 1014.99 1015.33 1015.58 1015.74 1015.81 1015.80 1015.76 1015.74 1015.74 1015.81 1015.92 1016.07 1016.22 1016.36 1016.46 1016.54 1016.58 1016.62 1016.66 1016.71 1016.77 1016.82 1016.85 1016.86 1016.82 1016.76 1016.69
1009.66 1009.94 1010.35 1010.86 1011.42 1011.99 1012.49 1012.89 1013.19 1013.38 1013.52 1013.66 1013.85 1014.11 1014.44 1014.82 1015.20 1015.55 1015.81 1015.97 1016.04 1016.04 1016.02 1016.00 1016.02 1016.08 1016.17 1016.28 1016.38 1016.46 1016.50 1016.53 1016.55 1016.57 1016.61 1016.68 1016.75 1016.82 1016.86 1016.87 1016.84 1016.77 1016.69
1009.32 1009.68 1010.18 1010.78 1011.44 1012.07 1012.61 1013.04 1013.34 1013.53 1013.66 1013.79 1013.98 1014.23 1014.56 1014.94 1015.32 1015.66 1015.92 1016.09 1016.17 1016.20 1016.20 1016.21 1016.25 1016.31 1016.39 1016.46 1016.51 1016.53 1016.52 1016.50 1016.48 1016.49 1016.53 1016.60 1016.69 1016.77 1016.82 1016.84 1016.81 1016.75 1016.67
1008.98 1009.42 1010.00 1010.70 1011.43 1012.12 1012.71 1013.15 1013.46 1013.65 1013.77 1013.90 1014.07 1014.32 1014.64 1015.00 1015.36 1015.68 1015.93 1016.10 1016.21 1016.27 1016.31 1016.36 1016.42 1016.50 1016.57 1016.61 1016.62 1016.59 1016.53 1016.46 1016.41 1016.40 1016.44 1016.51 1016.60 1016.69 1016.75 1016.76 1016.74 1016.69 1016.63
1008.71 1009.21 1009.86 1010.62 1011.41 1012.15 1012.77 1013.23 1013.54 1013.73 1013.86 1013.98 1014.14 1014.37 1014.67 1015.00 1015.34 1015.63 1015.87 1016.04 1016.17 1016.26 1016.35 1016.44 1016.55 1016.64 1016.71 1016.74 1016.72 1016.64 1016.54 1016.44 1016.36 1016.33 1016.35 1016.42 1016.51 1016.59 1016.64 1016.66 1016.64 1016.60 1016.55
1008.55 1009.08 1009.78 1010.58 1011.40 1012.15 1012.79 1013.26 1013.58 1013.77 1013.91 1014.03 1014.19 1014.42 1014.69 1015.00 1015.29 1015.56 1015.78 1015.95 1016.09 1016.22 1016.35 1016.49 1016.63 1016.75 1016.83 1016.85 1016.80 1016.70 1016.56 1016.43 1016.33 1016.29 1016.30 1016.36 1016.43 1016.50 1016.55 1016.56 1016.53 1016.49 1016.46
1008.53 1009.06 1009.76 1010.56 1011.38 1012.13 1012.76 1013.23 1013.55 1013.76 1013.91 1014.06 1014.23 1014.46 1014.72 1015.00 1015.28 1015.52 1015.72 1015.88 1016.03 1016.18 1016.34 1016.51 1016.68 1016.82 1016.91 1016.92 1016.86 1016.74 1016.59 1016.45 1016.34 1016.29 1016.29 1016.34 1016.41 1016.47 1016.50 1016.50 1016.47 1016.42 1016.39
1008.60 1009.12 1009.80 1010.57 1011.35 1012.07 1012.66 1013.12 1013.45 1013.68 1013.86 1014.04 1014.25 1014.50 1014.77 1015.04 1015.30 1015.52 1015.70 1015.85 1016.00 1016.16 1016.34 1016.53 1016.71 1016.87 1016.96 1016.97 1016.90 1016.78 1016.63 1016.48 1016.38 1016.33 1016.35 1016.40 1016.46 1016.52 1016.54 1016.52 1016.48 1016.43 1016.40
1008.72 1009.20 1009.84 1010.55 1011.28 1011.94 1012.50 1012.93 1013.26 1013.52 1013.74 1013.97 1014.23 1014.52 1014.81 1015.10 1015.35 1015.56 1015.73 1015.87 1016.01 1016.17 1016.35 1016.55 1016.74 1016.89 1016.98 1016.99 1016.93 1016.81 1016.67 1016.54 1016.46 1016.44 1016.47 1016.54 1016.62 1016.67 1016.69 1016.67 1016.62 1016.56 1016.52
1008.81 1009.25 1009.83 1010.48 1011.13 1011.73 1012.24 1012.65 1012.98 1013.27 1013.54 1013.83 1014.15 1014.49 1014.83 1015.14 1015.40 1015.61 1015.78 1015.92 1016.05 1016.20 1016.38 1016.57 1016.75 1016.90 1016.98 1017.00 1016.94 1016.84 1016.73 1016.63 1016.59 1016.61 1016.68 1016.77 1016.87 1016.95 1016.97 1016.95 1016.89 1016.82 1016.76
1008.81 1009.22 1009.74 1010.32 1010.90 1011.43 1011.89 1012.28 1012.61 1012.93 1013.26 1013.61 1013.99 1014.39 1014.77 1015.12 1015.41 1015.64 1015.81 1015.95 1016.09 1016.24 1016.41 1016.59 1016.76 1016.90 1016.98 1017.00 1016.96 1016.88 1016.81 1016.76 1016.76 1016.83 1016.94 1017.08 1017.22 1017.32 1017.36 1017.35 1017.29 1017.21 1017.13
1008.67 1009.05 1009.53 1010.05 1010.56 1011.03 1011.45 1011.83 1012.17 1012.52 1012.89 1013.30 1013.74 1014.19 1014.62 1015.01 1015.33 1015.59 1015.79 1015.95 1016.11 1016.26 1016.44 1016.61 1016.78 1016.91 1016.99 1017.02 1017.00 1016.95 1016.91 1016.91 1016.97 1017.09 1017.25 1017.44 1017.61 1017.74 1017.81 1017.82 1017.76 1017.67 1017.58
1008.39 1008.75 1009.18 1009.65 1010.12 1010.55 1010.95 1011.32 1011.68 1012.05 1012.46 1012.92 1013.40 1013.89 1014.37 1014.80 1015.16 1015.46 1015.70 1015.91 1016.09 1016.28 1016.46 1016.65 1016.81 1016.95 1017.03 1017.07 1017.07 1017.06 1017.06 1017.10 1017.20 1017.37 1017.57 1017.80 1018.01 1018.17 1018.27 1018.29 1018.25 1018.16 1018.05
1007.99 1008.32 1008.72 1009.15 1009.59 1010.00 1010.40 1010.78 1011.16 1011.57 1012.01 1012.50 1013.01 1013.53 1014.03 1014.50 1014.91 1015.26 1015.56 1015.82 1016.06 1016.29 1016.51 1016.71 1016.89 1017.03 1017.12 1017.17 1017.19 1017.21 1017.24 1017.31 1017.44 1017.63 1017.86 1018.11 1018.34 1018.53 1018.66 1018.71 1018.68 1018.60 1018.48
1007.50 1007.79 1008.16 1008.57 1008.99 1009.42 1009.83 1010.25 1010.67 1011.11 1011.58 1012.09 1012.61 1013.14 1013.66 1014.16 1014.61 1015.02 1015.39 1015.73 1016.03 1016.32 1016.59 1016.83 1017.02 1017.18 1017.28 1017.34 1017.37 1017.40 1017.44 1017.53 1017.66 1017.85 1018.09 1018.34 1018.58 1018.78 1018.92 1018.99 1018.99 1018.93 1018.82
1006.96 1007.21 1007.54 1007.93 1008.36 1008.81 1009.27 1009.74 1010.22 1010.71 1011.21 1011.73 1012.26 1012.79 1013.31 1013.83 1014.32 1014.79 1015.23 1015.65 1016.04 1016.40 1016.73 1017.00 1017.23 1017.39 1017.50 1017.56 1017.59 1017.62 1017.66 1017.73 1017.85 1018.02 1018.23 1018.46 1018.69 1018.88 1019.04 1019.13 1019.16 1019.12 1019.03
1006.43 1006.61 1006.89 1007.26 1007.71 1008.20 1008.73 1009.28 1009.84 1010.39 1010.93 1011.46 1011.98 1012.51 1013.03 1013.55 1014.08 1014.60 1015.12 1015.62 1016.10 1016.54 1016.92 1017.24 1017.49 1017.66 1017.77 1017.82 1017.85 1017.86 1017.88 1017.93 1018.02 1018.15 1018.31 1018.49 1018.68 1018.86 1019.01 1019.12 1019.17 1019.17 1019.12
1005.91 1006.01 1006.24 1006.59 1007.06 1007.62 1008.24 1008.88 1009.53 1010.15 1010.74 1011.29 1011.81 1012.32 1012.84 1013.36 1013.91 1014.48 1015.07 1015.65 1016.21 1016.71 1017.15 1017.51 1017.78 1017.96 1018.06 1018.11 1018.12 1018.11 1018.11 1018.12 1018.17 1018.24 1018.35 1018.47 1018.61 1018.75 1018.89 1019.00 1019.08 1019.11 1019.10
1005.42 1005.44 1005.60 1005.94 1006.43 1007.06 1007.77 1008.53 1009.28 1009.99 1010.64 1011.22 1011.74 1012.24 1012.74 1013.26 1013.82 1014.43 1015.07 1015.71 1016.34 1016.91 1017.39 1017.78 1018.07 1018.25 1018.35 1018.39 1018.39 1018.37 1018.34 1018.33 1018.33 1018.35 1018.39 1018.45 1018.53 1018.62 1018.72 1018.82 1018.92 1018.99 1019.02
1004.95 1004.89 1004.99 1005.31 1005.83 1006.52 1007.34 1008.21 1009.08 1009.88 1010.60 1011.21 1011.74 1012.23 1012.71 1013.22 1013.78 1014.41 1015.09 1015.79 1016.46 1017.08 1017.60 1018.02 1018.32 1018.51 1018.61 1018.65 1018.65 1018.63 1018.59 1018.57 1018.54 1018.51 1018.50 1018.49 1018.50 1018.53 1018.59 1018.66 1018.75 1018.83 1018.89
1004.50 1004.37 1004.42 1004.72 1005.26 1006.02 1006.92 1007.91 1008.88 1009.79 1010.57 1011.22 1011.77 1012.24 1012.71 1013.21 1013.77 1014.41 1015.10 1015.83 1016.54 1017.19 1017.75 1018.18 1018.50 1018.70 1018.82 1018.88 1018.89 1018.89 1018.88 1018.85 1018.81 1018.76 1018.70 1018.63 1018.57 1018.53 1018.52 1018.55 1018.60 1018.68 1018.75
1004.08 1003.88 1003.89 1004.17 1004.72 1005.53 1006.51 1007.59 1008.67 1009.66 1010.51 1011.20 1011.77 1012.25 1012.70 1013.18 1013.74 1014.37 1015.08 1015.82 1016.55 1017.23 1017.80 1018.26 1018.60 1018.82 1018.97 1019.06 1019.12 1019.16 1019.19 1019.20 1019.17 1019.12 1019.02 1018.90 1018.77 1018.65 1018.56 1018.52 1018.52 1018.55 1018.61
1003.68 1003.45 1003.41 1003.67 1004.22 1005.06 1006.09 1007.24 1008.40 1009.46 1010.37 1011.11 1011.70 1012.19 1012.64 1013.12 1013.67 1014.30 1015.01 1015.76 1016.50 1017.18 1017.77 1018.25 1018.61 1018.87 1019.06 1019.21 1019.33 1019.43 1019.52 1019.58 1019.60 1019.55 1019.44 1019.28 1019.09 1018.89 1018.71 1018.57 1018.48 1018.45 1018.46
1003.33 1003.07 1003.00 1003.22 1003.76 1004.60 1005.66 1006.85 1008.05 1009.17 1010.14 1010.92 1011.55 1012.06 1012.53 1013.01 1013.56 1014.19 1014.90 1015.65 1016.39 1017.09 1017.69 1018.18 1018.57 1018.87 1019.11 1019.32 1019.51 1019.69 1019.85 1019.98 1020.04 1020.02 1019.91 1019.72 1019.47 1019.19 1018.92 1018.68 1018.49 1018.37 1018.30
1003.04 1002.75 1002.65 1002.84 1003.35 1004.16 1005.22 1006.42 1007.65 1008.80 1009.81 1010.64 1011.30 1011.86 1012.36 1012.86 1013.43 1014.07 1014.79 1015.54 1016.29 1016.98 1017.59 1018.09 1018.50 1018.84 1019.12 1019.39 1019.65 1019.90 1020.14 1020.33 1020.44 1020.46 1020.36 1020.16 1019.86 1019.52 1019.16 1018.82 1018.53 1018.30 1018.14
Thickness
5768 5767 5762 5759 5756 5754 5752 5750 5748 5747 5746 5744 5743 5740 5737 5735 5733 5731 5730 5728 5727 5726 5726 5727 5727 5728 5727 5726 5724 5722 5720 5719 5718 5717 5717 5716 5717 5717 5716 5716 5715 5716 5715
5770 5765 5760 5756 5752 5750 5747 5745 5743 5742 5741 5740 5739 5737 5734 5731 5729 5727 5726 5725 5724 5723 5723 5723 5722 5722 5722 5720 5719 5718 5716 5715 5715 5715 5715 5713 5713 5713 5713 5712 5712 5712 5712
5768 5762 5757 5753 5749 5746 5743 5741 5739 5738 5737 5736 5735 5733 5731 5728 5726 5724 5722 5721 5720 5719 5719 5718 5718 5717 5717 5716 5715 5714 5713 5712 5713 5714 5713 5712 5710 5710 5709 5709 5708 5708 5708
5765 5758 5755 5750 5746 5743 5739 5737 5735 5734 5733 5732 5731 5729 5727 5725 5722 5720 5719 5717 5716 5715 5715 5714 5713 5713 5712 5712 5711 5710 5710 5710 5711 5711 5712 5711 5708 5706 5706 5705 5705 5704 5704
5763 5756 5751 5746 5742 5739 5736 5733 5732 5730 5729 5728 5726 5725 5723 5721 5719 5717 5715 5713 5711 5711 5711 5710 5709 5709 5708 5707 5707 5707 5707 5707 5707 5708 5708 5708 5704 5703 5702 5701 5700 5700 5700
5760 5754 5746 5742 5738 5735 5733 5730 5728 5726 5724 5723 5722 5720 5718 5717 5715 5713 5711 5709 5707 5707 5706 5706 5706 5705 5704 5704 5704 5703 5703 5704 5705 5706 5705 5704 5701 5699 5698 5697 5697 5697 5696
5757 5750 5742 5738 5735 5731 5729 5726 5724 5722 5720 5718 5716 5715 5714 5712 5711 5710 5708 5705 5704 5703 5703 5702 5702 5701 5700 5700 5700 5700 5700 5701 5702 5702 5701 5699 5696 5695 5694 5694 5693 5693 5693
5753 5746 5739 5735 5732 5728 5725 5723 5720 5718 5716 5714 5712 5711 5709 5708 5707 5707 5705 5702 5700 5700 5699 5698 5698 5697 5696 5696 5696 5697 5697 5698 5698 5699 5698 5694 5691 5691 5691 5690 5690 5690 5689
5750 5744 5736 5732 5728 5726 5723 5720 5717 5715 5713 5711 5709 5707 5705 5704 5703 5703 5701 5699 5697 5696 5695 5695 5694 5694 5693 5693 5693 5693 5694 5694 5694 5694 5691 5687 5686 5686 5686 5685 5685 5684 5684
5746 5741 5735 5730 5727 5723 5721 5718 5715 5712 5710 5708 5706 5704 5702 5700 5699 5698 5697 5695 5694 5692 5691 5691 5690 5690 5690 5690 5689 5690 5690 5690 5690 5688 5684 5681 5681 5681 5680 5679 5678 5677 5676
5738 5737 5734 5730 5726 5722 5718 5715 5713 5710 5707 5705 5702 5701 5699 5697 5696 5694 5692 5691 5690 5689 5688 5687 5687 5687 5686 5686 5686 5686 5685 5685 5684 5682 5677 5677 5676 5675 5673 5671 5670 5669 5667
5729 5732 5733 5730 5726 5721 5718 5712 5709 5706 5704 5702 5700 5698 5697 5696 5695 5691 5689 5687 5685 5684 5684 5683 5683 5682 5682 5681 5681 5680 5679 5679 5678 5674 5670 5671 5670 5668 5665 5663 5662 5661 5659
5727 5728 5730 5729 5725 5721 5717 5711 5708 5705 5702 5700 5699 5696 5695 5694 5691 5688 5685 5682 5681 5679 5678 5678 5677 5677 5677 5676 5675 5674 5673 5672 5670 5666 5663 5663 5662 5660 5657 5655 5653 5652 5650
5726 5727 5727 5725 5721 5718 5715 5711 5708 5705 5701 5699 5698 5695 5693 5690 5687 5685 5682 5679 5677 5674 5673 5672 5671 5670 5670 5669 5668 5667 5666 5665 5663 5658 5655 5654 5652 5651 5649 5646 5644 5643 5641
5724 5724 5724 5721 5717 5714 5711 5709 5707 5704 5701 5698 5695 5693 5690 5686 5683 5681 5678 5675 5672 5669 5667 5665 5663 5662 5661 5660 5660 5659 5658 5657 5655 5651 5646 5644 5642 5641 5639 5637 5635 5633 5632
5721 5720 5721 5718 5715 5711 5708 5706 5704 5701 5698 5695 5692 5688 5685 5682 5678 5675 5671 5668 5664 5662 5659 5657 5655 5654 5652 5651 5650 5649 5649 5648 5647 5643 5638 5635 5632 5631 5629 5627 5625 5623 5622
5719 5719 5718 5716 5713 5709 5705 5703 5700 5698 5696 5692 5688 5684 5681 5678 5673 5668 5663 5659 5657 5654 5652 5649 5648 5646 5644 5643 5642 5641 5640 5639 5637 5634 5630 5626 5623 5621 5619 5616 5615 5613 5612
5717 5717 5716 5716 5713 5708 5704 5699 5697 5695 5693 5690 5685 5681 5677 5673 5668 5662 5657 5652 5649 5647 5643 5641 5639 5637 5635 5633 5632 5633 5632 5629 5627 5625 5622 5619 5616 5612 5609 5607 5605 5603 5601
5714 5714 5713 5713 5711 5707 5702 5697 5692 5691 5690 5688 5683 5679 5673 5668 5663 5657 5651 5646 5643 5639 5635 5633 5629 5627 5625 5624 5624 5625 5623 5621 5619 5616 5614 5611 5608 5604 5601 5598 5595 5593 5591
5712 5712 5711 5710 5709 5704 5699 5693 5688 5686 5686 5684 5680 5675 5669 5663 5657 5651 5645 5640 5636 5631 5626 5622 5619 5617 5616 5615 5617 5617 5616 5614 5611 5608 5605 5603 5599 5596 5592 5589 5586 5583 5580
5706 5706 5706 5705 5706 5701 5694 5689 5683 5679 5678 5676 5674 5670 5663 5657 5651 5645 5640 5634 5629 5623 5619 5615 5611 5608 5605 5606 5606 5605 5605 5605 5603 5600 5597 5593 5590 5587 5583 5579 5576 5572 5569
5698 5700 5702 5702 5702 5700 5694 5688 5680 5674 5670 5667 5664 5659 5655 5649 5644 5639 5634 5628 5622 5616 5611 5607 5603 5599 5596 5595 5593 5592 5590 5591 5590 5590 5587 5583 5579 5576 5572 5569 5565 5561 5557
5692 5694 5696 5697 5696 5695 5690 5681 5671 5664 5658 5654 5651 5647 5644 5640 5636 5632 5627 5621 5615 5609 5603 5598 5594 5591 5586 5583 5581 5578 5574 5571 5570 5575 5574 5571 5567 5563 5559 5557 5553 5549 5545
5687 5690 5691 5691 5690 5688 5685 5677 5669 5663 5655 5649 5645 5639 5635 5631 5628 5624 5619 5613 5608 5601 5595 5590 5585 5581 5578 5573 5570 5567 5563 5558 5553 5552 5555 5556 5554 5550 5546 5543 5540 5535 5531
5679 5681 5685 5684 5683 5681 5678 5672 5664 5658 5652 5644 5636 5631 5627 5623 5620 5616 5611 5605 5599 5593 5587 5581 5575 5571 5567 5563 5559 5555 5552 5547 5543 5536 5536 5538 5537 5535 5532 5530 5528 5525 5521
5668 5670 5674 5676 5675 5673 5669 5663 5657 5652 5646 5638 5631 5625 5620 5616 5612 5608 5602 5596 5591 5584 5578 5572 5566 5560 5555 5551 5547 5543 5538 5533 5528 5524 5521 5522 5521 5521 5519 5517 5515 5512 5509